This demonstration page uses our WeatherBlox Daily Observations layout. Learn more.

Left ArrowRight Arrow

Hourly Observations for August 2, 2019

Temp ( °F °C ) Dew Point ( °F °C ) Humidity (%) Winds ( mph kmh ) Pressure ( in mb ) Visibility ( mi km ) Precip ( " mm )
12:15 am 00:15 Clear 68 19.9 65 18.2 90 90 NE 6 9 30.12 1020 10 16 0.00 0.00
12:35 am 00:35 Partly Cloudy 67 19.7 65 18.1 91 91 NE 5 7 30.13 1020 10 16 0.00 0.00
12:55 am 00:55 Partly Cloudy 66 19.1 65 18.2 95 95 NE 5 7 30.13 1020 10 16 0.00 0.00
1:15 am 01:15 Clear 66 19 64 18 94 94 NE 6 9 30.13 1020 10 16 0.00 0.00
1:35 am 01:35 Partly Cloudy 67 19.2 64 18 93 93 ENE 3 6 30.13 1020 10 16 0.00 0.00
1:55 am 01:55 Mostly Cloudy 67 19.3 64 17.8 91 91 NE 5 7 30.13 1020 10 16 0.00 0.00
2:15 am 02:15 Partly Cloudy 65 18.5 64 17.7 95 95 NE 5 7 30.13 1020 10 16 0.00 0.00
2:35 am 02:35 Partly Cloudy 64 17.6 64 17.6 100 100 NNE 6 9 30.12 1020 10 16 0.00 0.00
2:55 am 02:55 Partly Cloudy 64 17.7 64 17.6 99 99 NE 5 7 30.12 1020 10 16 0.00 0.00
3:15 am 03:15 Clear 63 17 63 17 100 100 NNE 5 7 30.13 1020 10 16 0.00 0.00
3:35 am 03:35 Clear 63 17 63 17 100 100 NE 5 7 30.13 1020 10 16 0.00 0.00
3:50 am 03:50 Clear 63 17 63 17 100 100 NE 3 6 30.13 1020 10 16 0.00 0.00
4:15 am 04:15 Clear 64 17.5 64 17.5 100 100 ENE 5 7 30.12 1020 10 16 0.00 0.00
4:35 am 04:35 Mostly Cloudy 64 17.5 64 17.5 100 100 ENE 3 6 30.12 1020 10 16 0.00 0.00
4:55 am 04:55 Partly Cloudy 63 17.1 63 17.1 100 100 NE 3 6 30.13 1020 10 16 0.00 0.00
5:15 am 05:15 Clear 62 16.8 62 16.8 100 100 NE 3 6 30.13 1020 10 16 0.00 0.00
5:35 am 05:35 Clear 62 16.7 62 16.7 100 100 Calm 30.13 1020 10 16 0.00 0.00
5:55 am 05:55 Partly Cloudy 62 16.5 62 16.5 100 100 NE 3 6 30.13 1020 10 16 0.00 0.00
6:15 am 06:15 Mostly Cloudy 62 16.5 62 16.5 100 100 NE 3 6 30.13 1020 10 16 0.00 0.00
6:35 am 06:35 Partly Cloudy 62 16.6 62 16.6 100 100 NE 5 7 30.13 1020 10 16 0.00 0.00
6:55 am 06:55 Partly Cloudy 62 16.5 62 16.5 100 100 NE 5 7 30.13 1020 10 16 0.00 0.00
7:15 am 07:15 Mostly Cloudy 62 16.6 62 16.6 100 100 NE 5 7 30.14 1021 10 16 0.00 0.00
7:35 am 07:35 Mostly Cloudy 63 17.1 63 17 99 99 Calm 30.14 1021 10 16 0.00 0.00
7:55 am 07:55 Partly Cloudy 64 17.5 63 17.4 99 99 Calm 30.13 1020 10 16 0.00 0.00
8:15 am 08:15 Sunny 66 18.7 62 16.8 89 89 E 5 7 30.13 1020 10 16 0.00 0.00
8:35 am 08:35 Partly Cloudy 68 19.8 62 16.7 82 82 ENE 5 7 30.13 1020 10 16 0.00 0.00
8:55 am 08:55 Partly Cloudy 69 20.6 60 15.8 74 74 ENE 5 7 30.12 1020 10 16 0.00 0.00
9:15 am 09:15 Sunny 70 21.1 59 15 68 68 E 6 9 30.12 1020 10 16 0.00 0.00
9:35 am 09:35 Sunny 72 22 57 14 61 61 E 6 9 30.12 1020 10 16 0.00 0.00
9:55 am 09:55 Sunny 73 22.7 58 14.3 59 59 E 7 11 30.12 1020 10 16 0.00 0.00
10:15 am 10:15 Sunny 74 23.4 59 15 59 59 E 5 7 30.12 1020 10 16 0.00 0.00
10:35 am 10:35 Sunny 75 23.8 58 14.7 57 57 ENE 6 9 30.11 1020 10 16 0.00 0.00
10:55 am 10:55 Sunny 76 24.4 59 15.1 56 56 ENE 6 9 30.11 1020 10 16 0.00 0.00
11:15 am 11:15 Sunny 77 24.8 60 15.7 57 57 ENE 5 7 30.12 1020 10 16 0.00 0.00
11:35 am 11:35 Sunny 77 25 59 15.2 55 55 ENE 6 9 30.12 1020 10 16 0.00 0.00
11:55 am 11:55 Sunny 78 25.4 61 15.9 56 56 E 5 7 30.12 1020 10 16 0.00 0.00
12:15 pm 12:15 Sunny 78 25.5 60 15.6 54 54 E 6 9 30.12 1020 10 16 0.00 0.00
12:35 pm 12:35 Sunny 78 25.6 60 15.6 54 54 NNE 9 15 30.11 1020 10 16 0.00 0.00
12:55 pm 12:55 Sunny 79 26 61 16.2 55 55 ENE 6 9 30.12 1020 10 16 0.00 0.00
1:15 pm 13:15 Sunny 79 26.1 61 16.1 54 54 ENE 8 13 30.12 1020 10 16 0.00 0.00
1:35 pm 13:35 Sunny 79 26.2 61 16.2 54 54 NE 10 17 30.11 1020 10 16 0.00 0.00
1:55 pm 13:55 Sunny 80 26.5 62 16.7 55 55 NE 7 11 30.10 1019 10 16 0.00 0.00
2:15 pm 14:15 Sunny 79 26.3 61 16.2 54 54 N 5 7 30.10 1019 10 16 0.00 0.00
2:35 pm 14:35 Partly Cloudy 79 26.3 62 16.5 55 55 ENE 7 11 30.10 1019 10 16 0.00 0.00
2:55 pm 14:55 Partly Cloudy 80 26.7 63 17 55 55 NNE 10 17 30.08 1019 10 16 0.00 0.00
3:15 pm 15:15 Sunny 80 26.5 62 16.5 54 54 NE 6 9 30.09 1019 10 16 0.00 0.00
3:35 pm 15:35 Partly Cloudy 80 26.8 62 16.4 53 53 NE 6 9 30.07 1018 10 16 0.00 0.00
3:55 pm 15:55 Partly Cloudy 80 26.7 62 16.8 55 55 NNE 7 11 30.07 1018 10 16 0.00 0.00
4:15 pm 16:15 Partly Cloudy 80 26.4 62 16.7 55 55 NE 9 15 30.07 1018 10 16 0.00 0.00
4:35 pm 16:35 Partly Cloudy 81 27.2 63 17.1 54 54 NE 8 13 30.06 1018 10 16 0.00 0.00
4:55 pm 16:55 Partly Cloudy 80 26.7 61 16.3 53 53 ENE 5 7 30.05 1018 10 16 0.00 0.00
5:15 pm 17:15 Sunny 80 26.6 61 16.3 53 53 E 7 11 30.05 1018 10 16 0.00 0.00
5:35 pm 17:35 Sunny 80 26.8 61 16.1 52 52 NNE 9 15 30.04 1017 10 16 0.00 0.00
5:55 pm 17:55 Sunny 80 26.6 61 16.1 53 53 NNE 8 13 30.04 1017 10 16 0.00 0.00
6:15 pm 18:15 Sunny 80 26.5 60 15.7 52 52 N 7 11 30.05 1017 10 16 0.00 0.00
6:35 pm 18:35 Sunny 79 26.2 61 16 53 53 NE 7 11 30.05 1017 10 16 0.00 0.00
6:55 pm 18:55 Sunny 79 26 60 15.5 52 52 NE 8 13 30.04 1017 10 16 0.00 0.00
7:15 pm 19:15 Sunny 78 25.7 60 15.3 53 53 NNE 6 9 30.04 1017 10 16 0.00 0.00
7:35 pm 19:35 Sunny 78 25.4 60 15.4 54 54 NNE 6 9 30.04 1017 10 16 0.00 0.00
7:55 pm 19:55 Sunny 77 25 60 15.6 56 56 NNE 6 9 30.04 1017 10 16 0.00 0.00
8:15 pm 20:15 Sunny 75 24 60 15.8 60 60 NNE 6 9 30.04 1017 10 16 0.00 0.00
8:35 pm 20:35 Sunny 73 22.6 61 16.3 68 68 NNE 6 9 30.05 1018 10 16 0.00 0.00
8:55 pm 20:55 Sunny 71 21.5 62 16.5 73 73 NNE 5 7 30.05 1018 10 16 0.00 0.00
9:15 pm 21:15 Clear 69 20.5 62 16.5 78 78 NE 3 6 30.06 1018 10 16 0.00 0.00
9:35 pm 21:35 Hazy 69 20.6 62 16.4 77 77 NNE 5 7 30.06 1018 5 8 0.00 0.00
9:55 pm 21:55 Clear 68 20 61 16.3 79 79 NNE 6 9 30.09 1019 10 16 0.00 0.00
10:15 pm 22:15 Clear 67 19.2 62 16.5 84 84 NE 5 7 30.09 1019 10 16 0.00 0.00
10:35 pm 22:35 Clear 65 18.5 62 16.4 88 88 NNE 5 7 30.09 1019 10 16 0.00 0.00
10:55 pm 22:55 Clear 64 18 62 16.7 92 92 NNE 3 6 30.10 1019 10 16 0.00 0.00
11:15 pm 23:15 Clear 64 17.6 62 16.8 95 95 NNE 3 6 30.09 1019 10 16 0.00 0.00
11:35 pm 23:35 Clear 63 17.1 62 16.6 97 97 NE 3 6 30.10 1019 10 16 0.00 0.00

Powered by AerisWeather